When you browse on this site, cookies collect data to enhance your experience and personalize the content and advertising you see.
Visit our Privacy Policy to learn more. By continuing to use the site, you agree to this use of cookies and data.
  • In United Kingdom
  • List of Countries
  • For 7 days
  • Water Temperature
  • Satellite Maps
  • Weather Map
  • Weather Widgets
  • user-avatar
    Login

    Hourly Weather Aberlour

    Today, 17 January, Thursday

    Time Temperature Precipitation Wind Pressure Humidity
    00:00 -3°C° 0 mm 7 mps 735 mmHg 68%
    01:00 -4°C° 0.2 mm 8 mps 735 mmHg 68%
    02:00 -3°C° 0.2 mm 9 mps 736 mmHg 67%
    03:00 -3°C° 0.2 mm 10 mps 736 mmHg 66%
    04:00 -3°C° 0.3 mm 10 mps 737 mmHg 65%
    05:00 -3°C° 0.3 mm 9 mps 738 mmHg 65%
    06:00 -2°C° 0 mm 8 mps 738 mmHg 68%
    07:00 -2°C° 0.1 mm 7 mps 739 mmHg 68%
    08:00 -2°C° 0.1 mm 7 mps 740 mmHg 69%
    09:00 -1°C° 0.1 mm 6 mps 741 mmHg 69%
    10:00 -1°C° 0.1 mm 6 mps 742 mmHg 70%
    11:00 -1°C° 0.1 mm 6 mps 742 mmHg 70%
    12:00 +1°C° 0.1 mm 6 mps 743 mmHg 70%
    13:00 0°C° 0.1 mm 5 mps 743 mmHg 72%
    14:00 0°C° 0.1 mm 4 mps 744 mmHg 74%
    15:00 +1°C° 0.1 mm 3 mps 744 mmHg 76%
    16:00 0°C° 0 mm 3 mps 744 mmHg 78%
    17:00 -1°C° 0 mm 2 mps 744 mmHg 81%
    18:00 -2°C° 0 mm 2 mps 744 mmHg 83%
    19:00 -2°C° 0 mm 2 mps 745 mmHg 84%
    20:00 -2°C° 0 mm 2 mps 745 mmHg 85%
    21:00 -2°C° 0 mm 2 mps 745 mmHg 86%
    22:00 -2°C° 0 mm 2 mps 745 mmHg 85%
    23:00 -2°C° 0 mm 2 mps 745 mmHg 83%

    Tomorrow, 18 January, Friday

    Time Temperature Precipitation Wind Pressure Humidity
    00:00 -2°C° 0 mm 2 mps 745 mmHg 82%
    01:00 -2°C° 0 mm 2 mps 744 mmHg 81%
    02:00 -2°C° 0 mm 2 mps 744 mmHg 80%
    03:00 -2°C° 0 mm 2 mps 744 mmHg 79%
    04:00 -2°C° 0 mm 2 mps 744 mmHg 79%
    05:00 -2°C° 0 mm 2 mps 743 mmHg 79%
    06:00 -2°C° 0 mm 3 mps 743 mmHg 79%
    07:00 -2°C° 0 mm 3 mps 743 mmHg 80%
    08:00 -2°C° 0 mm 3 mps 743 mmHg 81%
    09:00 -2°C° 0 mm 3 mps 742 mmHg 83%
    10:00 -1°C° 0 mm 3 mps 742 mmHg 79%
    11:00 -1°C° 0 mm 4 mps 742 mmHg 75%
    12:00 0°C° 0 mm 4 mps 742 mmHg 72%
    13:00 0°C° 0 mm 4 mps 741 mmHg 71%
    14:00 0°C° 0 mm 4 mps 741 mmHg 69%
    15:00 0°C° 0 mm 4 mps 740 mmHg 68%
    16:00 0°C° 0 mm 4 mps 740 mmHg 70%
    17:00 -1°C° 0 mm 4 mps 740 mmHg 71%
    18:00 -1°C° 0 mm 4 mps 740 mmHg 72%
    19:00 -1°C° 0 mm 4 mps 740 mmHg 74%
    20:00 -1°C° 0 mm 4 mps 739 mmHg 76%
    21:00 -1°C° 0 mm 4 mps 739 mmHg 78%
    22:00 0°C° 0 mm 3 mps 739 mmHg 81%
    23:00 0°C° 0 mm 3 mps 739 mmHg 83%

    Day after tomorrow, 19 January, Saturday

    Time Temperature Precipitation Wind Pressure Humidity
    00:00 0°C° 0 mm 3 mps 739 mmHg 86%
    01:00 0°C° 0 mm 3 mps 738 mmHg 88%
    02:00 0°C° 0 mm 3 mps 738 mmHg 89%
    03:00 +1°C° 0 mm 2 mps 738 mmHg 90%
    04:00 +1°C° 0 mm 2 mps 738 mmHg 91%
    05:00 +1°C° 0 mm 2 mps 738 mmHg 92%
    06:00 +1°C° 0 mm 2 mps 738 mmHg 93%
    07:00 +1°C° 0 mm 2 mps 738 mmHg 93%
    08:00 -1°C° 0 mm 2 mps 738 mmHg 94%
    09:00 -1°C° 0 mm 2 mps 738 mmHg 94%
    10:00 +1°C° 0 mm 2 mps 738 mmHg 92%
    11:00 +2°C° 0 mm 2 mps 738 mmHg 89%
    12:00 +3°C° 0 mm 2 mps 738 mmHg 87%
    13:00 +3°C° 0 mm 2 mps 738 mmHg 88%
    14:00 +3°C° 0 mm 2 mps 739 mmHg 89%
    15:00 +3°C° 0 mm 1 mps 739 mmHg 90%
    16:00 +3°C° 0 mm 1 mps 739 mmHg 91%
    17:00 +1°C° 0 mm 2 mps 739 mmHg 91%
    18:00 -1°C° 0 mm 2 mps 739 mmHg 92%
    19:00 -1°C° 0 mm 2 mps 740 mmHg 92%
    20:00 -1°C° 0 mm 2 mps 740 mmHg 92%
    21:00 -1°C° 0 mm 2 mps 740 mmHg 92%
    22:00 -1°C° 0 mm 2 mps 740 mmHg 91%
    23:00 -1°C° 0 mm 2 mps 740 mmHg 91%

    20 January, Sunday

    Time Temperature Precipitation Wind Pressure Humidity
    00:00 -1°C° 0 mm 2 mps 741 mmHg 90%
    01:00 -1°C° 0 mm 2 mps 741 mmHg 90%
    02:00 -1°C° 0 mm 2 mps 741 mmHg 90%
    03:00 -1°C° 0 mm 2 mps 741 mmHg 90%
    04:00 -1°C° 0 mm 2 mps 741 mmHg 89%
    05:00 -1°C° 0 mm 2 mps 742 mmHg 89%
    06:00 +1°C° 0 mm 2 mps 742 mmHg 88%
    07:00 -1°C° 0.3 mm 4 mps 743 mmHg 88%
    08:00 0°C° 0.3 mm 5 mps 743 mmHg 88%
    09:00 0°C° 0.3 mm 7 mps 744 mmHg 88%
    10:00 +1°C° 0 mm 6 mps 744 mmHg 84%
    11:00 +1°C° 0 mm 6 mps 745 mmHg 79%
    12:00 +1°C° 0 mm 6 mps 746 mmHg 75%
    13:00 +1°C° 0 mm 6 mps 746 mmHg 74%
    14:00 -1°C° 0 mm 7 mps 746 mmHg 73%
    15:00 -1°C° 0 mm 7 mps 747 mmHg 72%
    16:00 -2°C° 0 mm 6 mps 747 mmHg 73%
    17:00 -2°C° 0 mm 6 mps 748 mmHg 73%
    18:00 -3°C° 0 mm 6 mps 749 mmHg 74%
    19:00 -3°C° 0 mm 6 mps 749 mmHg 74%
    20:00 -2°C° 0 mm 5 mps 750 mmHg 74%
    21:00 -2°C° 0 mm 5 mps 750 mmHg 74%
    22:00 -2°C° 0 mm 5 mps 750 mmHg 75%
    23:00 -2°C° 0 mm 5 mps 750 mmHg 76%

    21 January, Monday

    Time Temperature Precipitation Wind Pressure Humidity
    00:00 -2°C° 0 mm 5 mps 751 mmHg 78%
    01:00 -2°C° 0 mm 4 mps 750 mmHg 79%
    02:00 -2°C° 0 mm 4 mps 750 mmHg 81%
    03:00 -1°C° 0 mm 3 mps 750 mmHg 83%
    04:00 -1°C° 0 mm 3 mps 750 mmHg 84%
    05:00 -2°C° 0 mm 3 mps 749 mmHg 84%
    06:00 -2°C° 0 mm 3 mps 749 mmHg 85%
    07:00 -1°C° 0 mm 3 mps 749 mmHg 85%
    08:00 -1°C° 0 mm 3 mps 748 mmHg 84%
    09:00 0°C° 0 mm 3 mps 748 mmHg 83%
    10:00 -1°C° 0.1 mm 4 mps 747 mmHg 81%
    11:00 0°C° 0.1 mm 4 mps 746 mmHg 79%
    12:00 +1°C° 0.1 mm 5 mps 745 mmHg 77%
    13:00 +1°C° 0.1 mm 5 mps 744 mmHg 77%
    14:00 0°C° 0.1 mm 5 mps 742 mmHg 78%
    15:00 0°C° 0.1 mm 5 mps 741 mmHg 78%
    16:00 -1°C° 0 mm 6 mps 740 mmHg 78%
    17:00 -1°C° 0 mm 6 mps 738 mmHg 78%
    18:00 -1°C° 0 mm 7 mps 737 mmHg 78%
    19:00 -1°C° 0.1 mm 7 mps 736 mmHg 79%
    20:00 -1°C° 0.1 mm 7 mps 735 mmHg 80%
    21:00 -1°C° 0.1 mm 7 mps 733 mmHg 81%
    22:00 -1°C° 0.1 mm 7 mps 733 mmHg 82%
    23:00 0°C° 0.1 mm 7 mps 732 mmHg 83%

    22 January, Tuesday

    Time Temperature Precipitation Wind Pressure Humidity
    00:00 0°C° 0.1 mm 7 mps 731 mmHg 84%
    01:00 0°C° 0.5 mm 5 mps 731 mmHg 87%
    02:00 0°C° 0.5 mm 4 mps 731 mmHg 89%
    03:00 +1°C° 0.5 mm 3 mps 731 mmHg 91%
    04:00 0°C° 0.9 mm 4 mps 731 mmHg 90%
    05:00 0°C° 0.9 mm 4 mps 731 mmHg 90%
    06:00 0°C° 0.9 mm 5 mps 732 mmHg 89%
    07:00 0°C° 0.6 mm 4 mps 732 mmHg 89%
    08:00 -1°C° 0.6 mm 4 mps 732 mmHg 89%
    09:00 -1°C° 0.6 mm 4 mps 733 mmHg 89%
    10:00 -1°C° 0.5 mm 4 mps 733 mmHg 88%
    11:00 -1°C° 0.5 mm 4 mps 733 mmHg 88%
    12:00 0°C° 0.5 mm 4 mps 733 mmHg 88%
    13:00 0°C° 0.5 mm 4 mps 734 mmHg 88%
    14:00 0°C° 0.5 mm 4 mps 734 mmHg 87%
    15:00 0°C° 0.5 mm 4 mps 734 mmHg 87%
    16:00 -1°C° 0.6 mm 4 mps 734 mmHg 87%
    17:00 -1°C° 0.6 mm 4 mps 735 mmHg 88%
    18:00 0°C° 0.6 mm 3 mps 735 mmHg 88%
    19:00 -1°C° 0.6 mm 4 mps 735 mmHg 88%
    20:00 -1°C° 0.6 mm 4 mps 736 mmHg 89%
    21:00 -1°C° 0.6 mm 4 mps 736 mmHg 90%
    22:00 0°C° 0.5 mm 3 mps 737 mmHg 90%
    23:00 0°C° 0.5 mm 3 mps 737 mmHg 91%
    Show more